^^
Grace C. Lehan Memorial Weather Station Historical Data
Daily Summary for February 15, 2021 Units:  English    Metric   Both
Daily Weekly Monthly Yearly
  High: Low: Average:
Temperature: 91.5 °F 68 °F 79.9 °F
Dew Point: 74.5 °F 66.8 °F 70.9 °F
Humidity: 97% 52.2% 76%
Wind Speed: 0.2mph 0mph 0mph
Wind Gust: 4mph - -
Wind- - West
Pressure: 30.09 in 29.94 in -
Precipitation: 0.01 in    
 
 
Tabular Data for February 15, 2021
Time Temperature Dew Point Pressure Wind Wind Speed Wind Gust Humidity Rainfall Rate (Hourly) solar
00:04 72.1 °F 70.3 °F 30.06 in Calm     94% 0.00 in 0 W/m2
00:09 72.1 °F 70.3 °F 30.06 in Calm     94% 0.00 in 0 W/m2
00:14 72.1 °F 70.2 °F 30.06 in Calm     94% 0.00 in 0 W/m2
00:19 72 °F 70.1 °F 30.06 in Calm     94% 0.00 in 0 W/m2
00:24 71.9 °F 70.1 °F 30.06 in Calm     94% 0.00 in 0 W/m2
00:29 71.8 °F 70 °F 30.06 in Calm     94% 0.00 in 0 W/m2
00:34 71.8 °F 70.3 °F 30.06 in Calm     95% 0.00 in 0 W/m2
00:39 71.7 °F 70.2 °F 30.06 in Calm     95% 0.00 in 0 W/m2
00:44 71.7 °F 70.2 °F 30.06 in Calm     95% 0.00 in 0 W/m2
00:49 71.6 °F 70.1 °F 30.06 in Calm     95% 0.00 in 0 W/m2
00:54 71.5 °F 70 °F 30.06 in Calm     95% 0.00 in 0 W/m2
00:59 71.5 °F 70 °F 30.06 in Calm     95% 0.00 in 0 W/m2
01:04 71.4 °F 69.9 °F 30.06 in Calm     95% 0.00 in 0 W/m2
01:09 71.3 °F 69.8 °F 30.06 in Calm     95% 0.00 in 0 W/m2
01:14 71.2 °F 69.7 °F 30.05 in Calm     95% 0.00 in 0 W/m2
01:19 71.1 °F 69.6 °F 30.06 in Calm     95% 0.00 in 0 W/m2
01:24 71 °F 69.5 °F 30.05 in Calm     95% 0.00 in 0 W/m2
01:29 71 °F 69.5 °F 30.05 in Calm     95% 0.00 in 0 W/m2
01:34 70.9 °F 69.4 °F 30.06 in Calm     95% 0.00 in 0 W/m2
01:39 70.8 °F 69.3 °F 30.06 in Calm     95% 0.00 in 0 W/m2
01:44 70.8 °F 69.3 °F 30.05 in Calm     95% 0.00 in 0 W/m2
01:49 70.7 °F 69.2 °F 30.06 in Calm     95% 0.00 in 0 W/m2
01:54 70.7 °F 69.2 °F 30.06 in Calm     95% 0.00 in 0 W/m2
01:59 70.7 °F 69.2 °F 30.06 in Calm     95% 0.00 in 0 W/m2
02:04 70.6 °F 69.1 °F 30.06 in Calm     95% 0.01 in 0 W/m2
02:09 70.6 °F 69.1 °F 30.06 in Calm     95% 0.01 in 0 W/m2
02:14 70.5 °F 69 °F 30.06 in Calm     95% 0.01 in 0 W/m2
02:19 70.4 °F 68.9 °F 30.06 in Calm     95% 0.01 in 0 W/m2
02:24 70.3 °F 68.8 °F 30.06 in Calm     95% 0.01 in 0 W/m2
02:29 70.2 °F 68.7 °F 30.06 in Calm     95% 0.01 in 0 W/m2
02:34 70.1 °F 68.6 °F 30.06 in Calm     95% 0.01 in 0 W/m2
02:39 70 °F 68.5 °F 30.06 in Calm     95% 0.01 in 0 W/m2
02:44 70 °F 68.5 °F 30.06 in Calm     95% 0.01 in 0 W/m2
02:49 69.9 °F 68.4 °F 30.06 in Calm     95% 0.01 in 0 W/m2
02:54 69.9 °F 68.4 °F 30.06 in Calm     95% 0.01 in 0 W/m2
02:59 69.8 °F 68.4 °F 30.06 in Calm     95% 0.01 in 0 W/m2
03:04 69.8 °F 68.3 °F 30.06 in Calm     95% 0.01 in 0 W/m2
03:09 69.7 °F 68.2 °F 30.06 in Calm     95% 0.01 in 0 W/m2
03:14 69.6 °F 68.4 °F 30.07 in Calm     96% 0.01 in 0 W/m2
03:19 69.5 °F 68.3 °F 30.07 in Calm     95.9% 0.01 in 0 W/m2
03:24 69.5 °F 68 °F 30.06 in Calm     95.2% 0.01 in 0 W/m2
03:29 69.4 °F 67.9 °F 30.07 in Calm   2 mph 95% 0.01 in 0 W/m2
03:34 69.4 °F 68 °F 30.07 in Calm   2 mph 95.4% 0.01 in 0 W/m2
03:39 69.4 °F 68.2 °F 30.06 in Calm     96% 0.00 in 0 W/m2
03:44 69.3 °F 68.1 °F 30.06 in Calm     96% 0.00 in 0 W/m2
03:49 69.3 °F 68.1 °F 30.06 in Calm     96% 0.00 in 0 W/m2
03:54 69.3 °F 68.1 °F 30.06 in Calm     96% 0.00 in 0 W/m2
03:59 69.3 °F 68.1 °F 30.06 in Calm     96% 0.00 in 0 W/m2
04:00 69.2 °F 68 °F 30.06 in Calm     96% 0.00 in 0 W/m2
04:09 69.2 °F 68 °F 30.06 in Calm     96% 0.00 in 0 W/m2
04:14 69.1 °F 67.9 °F 30.06 in Calm     96% 0.00 in 0 W/m2
04:19 69 °F 67.8 °F 30.06 in Calm     96% 0.00 in 0 W/m2
04:24 69 °F 67.8 °F 30.06 in Calm     96% 0.00 in 0 W/m2
04:29 68.9 °F 67.7 °F 30.07 in Calm     96% 0.00 in 0 W/m2
04:34 68.8 °F 67.6 °F 30.07 in Calm     96% 0.00 in 0 W/m2
04:39 68.7 °F 67.6 °F 30.07 in Calm     96% 0.00 in 0 W/m2
04:44 68.7 °F 67.5 °F 30.07 in Calm     96% 0.00 in 0 W/m2
04:49 68.6 °F 67.4 °F 30.07 in Calm     96% 0.00 in 0 W/m2
04:54 68.6 °F 67.4 °F 30.07 in Calm     96% 0.00 in 0 W/m2
04:59 68.5 °F 67.3 °F 30.07 in Calm     96% 0.00 in 0 W/m2
05:04 68.4 °F 67.3 °F 30.07 in Calm     96% 0.00 in 0 W/m2
05:09 68.4 °F 67.2 °F 30.07 in Calm     96% 0.00 in 0 W/m2
05:14 68.3 °F 67.1 °F 30.07 in Calm     96% 0.00 in 0 W/m2
05:19 68.2 °F 67.1 °F 30.07 in Calm     96% 0.00 in 0 W/m2
05:24 68.2 °F 67 °F 30.07 in Calm     96% 0.00 in 0 W/m2
05:29 68.1 °F 66.9 °F 30.07 in Calm     96% 0.00 in 0 W/m2
05:34 68.1 °F 66.9 °F 30.07 in Calm     96% 0.00 in 0 W/m2
05:39 68 °F 66.8 °F 30.08 in Calm     96% 0.00 in 5 W/m2
05:44 68 °F 66.8 °F 30.08 in Calm     96% 0.00 in 7 W/m2
05:49 68 °F 66.9 °F 30.08 in Calm     96% 0.00 in 9 W/m2
05:54 68.1 °F 66.9 °F 30.08 in Calm     96% 0.00 in 12 W/m2
05:59 68.1 °F 66.9 °F 30.08 in Calm     96% 0.00 in 14 W/m2
06:04 68.1 °F 66.9 °F 30.08 in Calm     96% 0.00 in 18 W/m2
06:09 68.1 °F 66.9 °F 30.08 in Calm     96% 0.00 in 19 W/m2
06:14 68.2 °F 67 °F 30.08 in Calm     96% 0.00 in 21 W/m2
06:19 68.2 °F 67 °F 30.08 in Calm     96% 0.00 in 25 W/m2
06:24 68.3 °F 67.1 °F 30.09 in Calm     96% 0.00 in 26 W/m2
06:29 68.3 °F 67.1 °F 30.09 in Calm     96% 0.00 in 32 W/m2
06:34 68.4 °F 67.3 °F 30.09 in Calm     96% 0.00 in 39 W/m2
06:36 68.5 °F 67.3 °F 30.09 in Calm     96% 0.00 in 40 W/m2
07:00 70.4 °F 69.5 °F 30.09 in Calm     97% 0.00 in 52 W/m2
07:30 72.8 °F 71.9 °F 30.08 in Calm     97% 0.00 in 97 W/m2
08:04 75.8 °F 73 °F 30.08 in Calm     91% 0.00 in 367 W/m2
08:06 76 °F 72.9 °F 30.08 in Calm     90.2% 0.00 in 374 W/m2
08:30 78.4 °F 73.2 °F 30.08 in Calm     84% 0.00 in 401 W/m2
09:00 80.4 °F 72.9 °F 30.08 in Calm     78% 0.00 in 498 W/m2
09:30 81.5 °F 73.2 °F 30.08 in Calm     76% 0.00 in 569 W/m2
10:00 82.8 °F 74.5 °F 30.07 in Calm     76% 0.00 in 582 W/m2
11:00 86.1 °F 73.9 °F 30.06 in Calm     67% 0.00 in 787 W/m2
11:30 87.1 °F 71.5 °F 30.06 in Calm     60% 0.00 in 836 W/m2
12:04 87.8 °F 71.9 °F 30.05 in Calm     59.4% 0.00 in 893 W/m2
12:09 88 °F 71.6 °F 30.05 in Calm   2 mph 58.5% 0.00 in 895 W/m2
12:14 88.3 °F 71.7 °F 30.05 in Calm   2 mph 58.2% 0.00 in 898 W/m2
12:19 88.2 °F 69.6 °F 30.05 in Calm   2 mph 54.2% 0.00 in 895 W/m2
12:24 87.9 °F 70.6 °F 30.05 in Calm   2 mph 56.6% 0.00 in 898 W/m2
12:29 87.9 °F 71 °F 30.04 in Calm   2 mph 57.5% 0.00 in 904 W/m2
12:34 88 °F 71.4 °F 30.04 in Calm   2 mph 57.9% 0.00 in 905 W/m2
12:39 88.4 °F 72.7 °F 30.04 in Calm     59.8% 0.00 in 907 W/m2
12:44 88.7 °F 72.1 °F 30.04 in Calm     58.1% 0.00 in 907 W/m2
12:49 88.9 °F 72.6 °F 30.04 in Calm     58.7% 0.00 in 909 W/m2
12:54 88.8 °F 71.7 °F 30.04 in Calm     57.1% 0.00 in 909 W/m2
12:59 88.6 °F 71.9 °F 30.04 in Calm     58% 0.00 in 912 W/m2
13:04 88.5 °F 71.3 °F 30.04 in Calm     57% 0.00 in 912 W/m2
13:09 88.6 °F 72.1 °F 30.04 in Calm     58.4% 0.00 in 912 W/m2
13:14 88.8 °F 70.5 °F 30.04 in Calm     54.9% 0.00 in 912 W/m2
13:19 89 °F 69.8 °F 30.03 in Calm     53.2% 0.00 in 911 W/m2
13:24 89.3 °F 70.9 °F 30.03 in Calm     54.8% 0.00 in 907 W/m2
13:29 89.4 °F 69.6 °F 30.03 in Calm     52.2% 0.00 in 904 W/m2
13:34 89.2 °F 70.4 °F 30.03 in Calm     54% 0.00 in 900 W/m2
13:39 89.2 °F 71.9 °F 30.03 in Calm     56.7% 0.00 in 900 W/m2
13:44 89.4 °F 71.7 °F 30.03 in Calm     56.1% 0.00 in 895 W/m2
13:49 89.7 °F 71.1 °F 30.03 in Calm     54.6% 0.00 in 895 W/m2
13:54 89.8 °F 72.5 °F 30.03 in Calm     56.8% 0.00 in 895 W/m2
13:59 89.8 °F 70.8 °F 30.03 in Calm     53.7% 0.00 in 926 W/m2
14:04 89.9 °F 72.4 °F 30.02 in Calm     56.7% 0.00 in 923 W/m2
14:09 90.2 °F 72.2 °F 30.02 in WNW 0.1 mph 2 mph 55.8% 0.00 in 926 W/m2
14:14 90.4 °F 70.9 °F 30.02 in Calm   2 mph 52.9% 0.00 in 900 W/m2
14:19 90.4 °F 72.1 °F 30.02 in Calm   2 mph 55.3% 0.00 in 888 W/m2
14:24 90.3 °F 72.2 °F 30.02 in Calm   2 mph 55.4% 0.00 in 902 W/m2
14:29 90.3 °F 72.2 °F 30.02 in Calm   2 mph 55.5% 0.00 in 925 W/m2
14:34 90.2 °F 72.1 °F 30.02 in Calm   2 mph 55.5% 0.00 in 995 W/m2
14:39 90.2 °F 73.5 °F 30.02 in Calm     58% 0.00 in 995 W/m2
14:44 90.4 °F 72.8 °F 30.02 in Calm     56.3% 0.00 in 933 W/m2
14:49 90.6 °F 72.4 °F 30.02 in Calm   1 mph 55.4% 0.00 in 881 W/m2
14:54 91 °F 73.5 °F 30.02 in Calm   1 mph 56.6% 0.00 in 854 W/m2
14:59 91.4 °F 73.3 °F 30.02 in Calm   1 mph 55.6% 0.00 in 854 W/m2
15:04 91.5 °F 72.7 °F 30.02 in Calm   1 mph 54.4% 0.00 in 838 W/m2
15:09 91.2 °F 71.9 °F 30.02 in Calm     53.4% 0.00 in 856 W/m2
15:14 90.8 °F 72.3 °F 30.01 in Calm   2 mph 54.7% 0.00 in 824 W/m2
15:19 90.8 °F 72.7 °F 30.01 in Calm   2 mph 55.6% 0.00 in 803 W/m2
15:24 91 °F 72.7 °F 30.01 in Calm   2 mph 55.2% 0.00 in 793 W/m2
15:29 91.1 °F 72.3 °F 30.00 in Calm   2 mph 54.2% 0.00 in 802 W/m2
15:34 91 °F 72.3 °F 30.00 in Calm   2 mph 54.4% 0.00 in 744 W/m2
15:39 90.8 °F 72.6 °F 30.00 in West 0.1 mph 2 mph 55.3% 0.00 in 731 W/m2
15:44 90.8 °F 73.3 °F 30.00 in Calm   2 mph 56.8% 0.00 in 686 W/m2
15:49 90.8 °F 73 °F 30.00 in Calm   2 mph 56.2% 0.00 in 668 W/m2
15:54 90.8 °F 72.7 °F 29.99 in West 0.1 mph 2 mph 55.6% 0.00 in 650 W/m2
15:59 90.8 °F 72.3 °F 29.99 in West 0.1 mph 2 mph 54.7% 0.00 in 684 W/m2
16:04 90.8 °F 72.9 °F 29.99 in Calm     56% 0.00 in 686 W/m2
16:09 90.8 °F 73.3 °F 29.99 in Calm     56.7% 0.00 in 675 W/m2
16:14 90.8 °F 72.1 °F 29.99 in Calm     54.4% 0.00 in 652 W/m2
16:19 90.7 °F 71.5 °F 29.99 in Calm     53.5% 0.00 in 631 W/m2
16:24 90.5 °F 72.4 °F 29.99 in Calm     55.4% 0.00 in 104 W/m2
16:29 90.4 °F 72 °F 29.99 in Calm   1 mph 55% 0.00 in 95 W/m2
16:34 90.3 °F 72.2 °F 29.99 in WSW 0.2 mph 4 mph 55.4% 0.00 in 98 W/m2
16:39 90.2 °F 72.4 °F 29.99 in Calm   4 mph 56% 0.00 in 98 W/m2
16:44 90.1 °F 72 °F 29.98 in WSW 0.1 mph 4 mph 55.4% 0.00 in 83 W/m2
16:49 89.9 °F 71.4 °F 29.98 in WSW 0.1 mph 4 mph 54.7% 0.00 in 81 W/m2
16:54 89.7 °F 71.8 °F 29.98 in Calm   4 mph 55.7% 0.00 in 95 W/m2
16:59 89.6 °F 71.6 °F 29.98 in Calm   4 mph 55.6% 0.00 in 98 W/m2
17:04 89.5 °F 71.7 °F 29.98 in WSW 0.1 mph 4 mph 55.9% 0.00 in 104 W/m2
17:09 89.4 °F 72.4 °F 29.98 in Calm   2 mph 57.4% 0.00 in 84 W/m2
17:14 89.2 °F 72.5 °F 29.98 in Calm   2 mph 57.9% 0.00 in 93 W/m2
17:19 89.1 °F 72.3 °F 29.98 in Calm   2 mph 57.7% 0.00 in 98 W/m2
17:24 88.9 °F 72.2 °F 29.98 in Calm   2 mph 58% 0.00 in 76 W/m2
17:29 88.5 °F 72.3 °F 29.98 in Calm   2 mph 58.8% 0.00 in 63 W/m2
17:34 88.3 °F 72.4 °F 29.97 in Calm   2 mph 59.5% 0.00 in 63 W/m2
17:39 88.1 °F 73 °F 29.97 in WSW 0.1 mph 2 mph 61.1% 0.00 in 63 W/m2
17:44 87.9 °F 73.1 °F 29.97 in Calm   2 mph 61.7% 0.00 in 58 W/m2
17:49 87.8 °F 73.6 °F 29.97 in Calm   2 mph 63% 0.00 in 58 W/m2
17:54 87.6 °F 73.4 °F 29.97 in Calm   2 mph 63% 0.00 in 60 W/m2
17:59 87.4 °F 73.3 °F 29.97 in Calm   2 mph 63.1% 0.00 in 60 W/m2
18:04 87.3 °F 73.6 °F 29.97 in Calm   2 mph 64% 0.00 in 58 W/m2
18:09 87.3 °F 73.6 °F 29.96 in Calm   1 mph 64% 0.00 in 51 W/m2
18:14 87.1 °F 73 °F 29.96 in Calm   1 mph 63% 0.00 in 51 W/m2
18:19 86.9 °F 73.2 °F 29.96 in Calm   1 mph 63.9% 0.00 in 51 W/m2
18:24 86.7 °F 72.6 °F 29.95 in Calm   1 mph 63.1% 0.00 in 47 W/m2
18:29 86.5 °F 72.2 °F 29.95 in Calm   1 mph 62.5% 0.00 in 47 W/m2
18:34 86.4 °F 71.7 °F 29.95 in Calm   1 mph 61.6% 0.00 in 44 W/m2
18:39 86.3 °F 71.4 °F 29.95 in Calm     61.2% 0.00 in 42 W/m2
18:44 86.3 °F 71.4 °F 29.95 in Calm     61.4% 0.00 in 40 W/m2
18:49 86.2 °F 70.9 °F 29.95 in Calm     60.6% 0.00 in 39 W/m2
18:54 86.1 °F 71.1 °F 29.94 in Calm     61.1% 0.00 in 37 W/m2
18:59 86.1 °F 71.2 °F 29.95 in Calm     61.3% 0.00 in 35 W/m2
19:04 86 °F 71 °F 29.94 in Calm     61.1% 0.00 in 35 W/m2
19:09 85.9 °F 70.5 °F 29.94 in Calm     60.2% 0.00 in 33 W/m2
19:14 85.7 °F 70.8 °F 29.94 in Calm     61.2% 0.00 in 32 W/m2
19:19 85.6 °F 71 °F 29.94 in Calm     61.8% 0.00 in 30 W/m2
19:23 85.5 °F 71.2 °F 29.94 in Calm     62.5% 0.00 in 28 W/m2
19:29 85.4 °F 71.7 °F 29.94 in Calm     63.7% 0.00 in 25 W/m2
19:34 85.2 °F 72 °F 29.94 in Calm     64.7% 0.00 in 21 W/m2
19:39 84.9 °F 72.1 °F 29.94 in Calm     65.5% 0.00 in 19 W/m2
19:44 84.7 °F 72.3 °F 29.94 in Calm     66.3% 0.00 in 18 W/m2
19:49 84.6 °F 72.4 °F 29.95 in Calm     67% 0.00 in 14 W/m2
19:54 84.4 °F 72.5 °F 29.95 in Calm     67.8% 0.00 in 12 W/m2
19:59 84.1 °F 72.5 °F 29.95 in Calm     68.1% 0.00 in 9 W/m2
20:00 84 °F 72.7 °F 29.95 in Calm     69% 0.00 in 7 W/m2
20:09 83.6 °F 72.4 °F 29.95 in Calm   2 mph 69% 0.00 in 5 W/m2
20:14 83.4 °F 72.4 °F 29.95 in Calm   2 mph 69.5% 0.00 in 0 W/m2
20:19 83.2 °F 72.4 °F 29.95 in Calm   2 mph 70% 0.00 in 0 W/m2
20:24 82.9 °F 72.5 °F 29.95 in Calm   2 mph 70.8% 0.00 in 0 W/m2
20:29 82.6 °F 72.4 °F 29.95 in Calm   2 mph 71.3% 0.00 in 0 W/m2
20:34 82.3 °F 72.4 °F 29.95 in Calm   2 mph 72% 0.00 in 0 W/m2
20:39 82.1 °F 72.2 °F 29.96 in Calm     72% 0.00 in 0 W/m2
20:44 81.8 °F 72.2 °F 29.96 in Calm     72.9% 0.00 in 0 W/m2
20:49 81.5 °F 72 °F 29.96 in Calm     73% 0.00 in 0 W/m2
20:54 81.2 °F 72.1 °F 29.95 in Calm     73.8% 0.00 in 0 W/m2
20:59 81 °F 72 °F 29.96 in Calm     74.1% 0.00 in 0 W/m2
21:04 80.8 °F 72.1 °F 29.96 in WSW 0.1 mph 3 mph 75% 0.00 in 0 W/m2
21:09 80.6 °F 72.2 °F 29.95 in Calm   3 mph 75.6% 0.00 in 0 W/m2
21:14 80.4 °F 72.1 °F 29.96 in Calm   3 mph 76% 0.00 in 0 W/m2
21:19 80.2 °F 72.2 °F 29.96 in Calm   3 mph 76.5% 0.00 in 0 W/m2
21:24 80.1 °F 72.2 °F 29.96 in Calm   3 mph 77% 0.00 in 0 W/m2
21:29 79.9 °F 72.2 °F 29.96 in Calm   3 mph 77.2% 0.00 in 0 W/m2
21:34 79.8 °F 72.3 °F 29.96 in Calm   3 mph 78% 0.00 in 0 W/m2
21:39 79.6 °F 72.2 °F 29.96 in Calm     78.1% 0.00 in 0 W/m2
21:44 79.4 °F 72.4 °F 29.96 in Calm     79% 0.00 in 0 W/m2
21:49 79.3 °F 72.2 °F 29.96 in Calm     79% 0.00 in 0 W/m2
21:54 79.2 °F 72.3 °F 29.96 in Calm     79.5% 0.00 in 0 W/m2
21:59 79 °F 72.4 °F 29.96 in Calm     80% 0.00 in 0 W/m2
22:04 78.9 °F 72.2 °F 29.96 in Calm     80% 0.00 in 0 W/m2
22:09 78.8 °F 72.3 °F 29.96 in Calm     80.4% 0.00 in 0 W/m2
22:14 78.7 °F 72.4 °F 29.96 in Calm     81% 0.00 in 0 W/m2
22:19 78.6 °F 72.3 °F 29.96 in Calm     81% 0.00 in 0 W/m2
22:24 78.5 °F 72.2 °F 29.96 in Calm     81% 0.00 in 0 W/m2
22:29 78.4 °F 72.4 °F 29.96 in Calm     81.9% 0.00 in 0 W/m2
22:34 78.3 °F 72.3 °F 29.97 in Calm     82% 0.00 in 0 W/m2
22:39 78.2 °F 72.2 °F 29.97 in Calm     82% 0.00 in 0 W/m2
22:44 78 °F 72.3 °F 29.96 in Calm     82.4% 0.00 in 0 W/m2
22:49 77.9 °F 72.4 °F 29.96 in Calm     83% 0.00 in 0 W/m2
22:54 77.8 °F 72.2 °F 29.96 in Calm     83% 0.00 in 0 W/m2
22:59 77.7 °F 72.2 °F 29.96 in Calm     83% 0.00 in 0 W/m2
23:04 77.6 °F 72.4 °F 29.96 in Calm     83.9% 0.00 in 0 W/m2
23:09 77.5 °F 72.3 °F 29.96 in Calm     84% 0.00 in 0 W/m2
23:14 77.5 °F 72.2 °F 29.96 in Calm     84% 0.00 in 0 W/m2
23:19 77.3 °F 72.2 °F 29.96 in Calm     84.3% 0.00 in 0 W/m2
23:24 77.3 °F 72.4 °F 29.96 in Calm     85% 0.00 in 0 W/m2
23:29 77.1 °F 72.3 °F 29.95 in Calm     85% 0.00 in 0 W/m2
23:34 77 °F 72.2 °F 29.95 in Calm     85% 0.00 in 0 W/m2
23:39 76.9 °F 72.3 °F 29.95 in Calm     85.7% 0.00 in 0 W/m2
23:44 76.9 °F 72.4 °F 29.95 in Calm     86% 0.00 in 0 W/m2
23:49 76.8 °F 72.3 °F 29.95 in Calm     86% 0.00 in 0 W/m2
23:54 76.7 °F 72.2 °F 29.95 in Calm     86% 0.00 in 0 W/m2
23:59 76.6 °F 72.3 °F 29.95 in Calm     86.6% 0.00 in 0 W/m2
Hartford County Weather
Compliments of Weather Underground - 4 mb